Satellite: ORSTED
Catalog number: 25635
Epoch time:      103036.50854753
Element set:     824 
Inclination:       96.4489 deg
RA of node:        25.8671 deg
Eccentricity:    0.0146178
Arg of perigee:    11.0981 deg
Mean anomaly:     349.3381 deg
Mean motion:   14.44809979 rev/day
Decay rate:    9.2099E-006 rev/day^2
Epoch rev:           20805
Checksum:              343

Satellite: SUNSAT
Catalog number: 25636
Epoch time:      103035.98718696
Element set:     732 
Inclination:       96.4516 deg
RA of node:        24.1558 deg
Eccentricity:    0.0150140
Arg of perigee:    18.9892 deg
Mean anomaly:     341.6819 deg
Mean motion:   14.42938440 rev/day
Decay rate:    4.6499E-006 rev/day^2
Epoch rev:           20785
Checksum:              341

Satellite: UOSAT 12
Catalog number: 25693
Epoch time:      103037.49300089
Element set:     683 
Inclination:       64.5578 deg
RA of node:        47.7454 deg
Eccentricity:    0.0019128
Arg of perigee:   316.8177 deg
Mean anomaly:      43.1440 deg
Mean motion:   14.76373138 rev/day
Decay rate:    5.7100E-006 rev/day^2
Epoch rev:           20447
Checksum:              314

Satellite: FENGYUN 1C
Catalog number: 25730
Epoch time:      103037.39181246
Element set:     760 
Inclination:       98.6348 deg
RA of node:        62.2486 deg
Eccentricity:    0.0015075
Arg of perigee:    39.8353 deg
Mean anomaly:     320.3924 deg
Mean motion:   14.11732880 rev/day
Decay rate:    7.0999E-007 rev/day^2
Epoch rev:           19291
Checksum:              322

Satellite: ASTRA 1H
Catalog number: 25785
Epoch time:      103037.00000000
Element set:     370 
Inclination:        0.0122 deg
RA of node:       319.8851 deg
Eccentricity:    0.0002995
Arg of perigee:    65.1991 deg
Mean anomaly:     129.8363 deg
Mean motion:    1.00273184 rev/day
Decay rate:    1.2100E-006 rev/day^2
Epoch rev:            1337
Checksum:              238

Satellite: TERRA
Catalog number: 25994
Epoch time:      103037.22702447
Element set:     671 
Inclination:       98.1995 deg
RA of node:       113.6375 deg
Eccentricity:    0.0001071
Arg of perigee:    60.2637 deg
Mean anomaly:     299.8668 deg
Mean motion:   14.57116647 rev/day
Decay rate:    5.7399E-006 rev/day^2
Epoch rev:           16687
Checksum:              350

Satellite: JAWSAT
Catalog number: 26061
Epoch time:      103037.19247625
Element set:     758 
Inclination:      100.2096 deg
RA of node:        91.9641 deg
Eccentricity:    0.0034911
Arg of perigee:   314.9951 deg
Mean anomaly:      44.8402 deg
Mean motion:   14.37809116 rev/day
Decay rate:    5.2499E-006 rev/day^2
Epoch rev:           15875
Checksum:              313

Satellite: OPAL
Catalog number: 26063
Epoch time:      103036.17266571
Element set:     714 
Inclination:      100.2149 deg
RA of node:        88.3219 deg
Eccentricity:    0.0037164
Arg of perigee:   325.0601 deg
Mean anomaly:      34.8137 deg
Mean motion:   14.35475176 rev/day
Decay rate:    1.4900E-006 rev/day^2
Epoch rev:           15846
Checksum:              283

Satellite: ASUSAT
Catalog number: 26065
Epoch time:      103036.54799311
Element set:     726 
Inclination:      100.2115 deg
RA of node:        88.9103 deg
Eccentricity:    0.0037032
Arg of perigee:   325.1198 deg
Mean anomaly:      34.7556 deg
Mean motion:   14.35502570 rev/day
Decay rate:    1.7500E-006 rev/day^2
Epoch rev:           15851
Checksum:              375

Satellite: GOES 11
Catalog number: 26352
Epoch time:      103036.42876972
Element set:     9 
Inclination:        0.1035 deg
RA of node:       102.8187 deg
Eccentricity:    0.0003684
Arg of perigee:   213.7927 deg
Mean anomaly:     219.8100 deg
Mean motion:    1.00263676 rev/day
Decay rate:   -3.7000E-007 rev/day^2
Epoch rev:            1010
Checksum:              255

Satellite: EUTELSAT W4
Catalog number: 26369
Epoch time:      103036.22543983
Element set:     349 
Inclination:        0.0319 deg
RA of node:         7.5430 deg
Eccentricity:    0.0003122
Arg of perigee:   307.7958 deg
Mean anomaly:     296.8312 deg
Mean motion:    1.00271875 rev/day
Decay rate:    1.5299E-006 rev/day^2
Epoch rev:             991
Checksum:              295

Satellite: FENGYUN 2B
Catalog number: 26382
Epoch time:      103037.13366367
Element set:     787 
Inclination:        0.5869 deg
RA of node:       287.7398 deg
Eccentricity:    0.0000924
Arg of perigee:   197.0923 deg
Mean anomaly:     163.1797 deg
Mean motion:    1.00275883 rev/day
Decay rate:    9.9999E-009 rev/day^2
Epoch rev:             959
Checksum:              367

Satellite: EUTELSAT W1
Catalog number: 26487
Epoch time:      103036.85585087
Element set:     351 
Inclination:        0.0062 deg
RA of node:       160.2856 deg
Eccentricity:    0.0003572
Arg of perigee:    62.0616 deg
Mean anomaly:     231.3266 deg
Mean motion:    1.00273797 rev/day
Decay rate:    6.8000E-007 rev/day^2
Epoch rev:             889
Checksum:              283

Satellite: ASTRA 2B
Catalog number: 26494
Epoch time:      103037.00000000
Element set:     253 
Inclination:        0.0178 deg
RA of node:       354.5658 deg
Eccentricity:    0.0005000
Arg of perigee:   302.8402 deg
Mean anomaly:     226.4937 deg
Mean motion:    1.00276704 rev/day
Decay rate:    1.5099E-006 rev/day^2
Epoch rev:             879
Checksum:              249

Satellite: NOAA 16
Catalog number: 26536
Epoch time:      103037.03862870
Element set:     197 
Inclination:       98.9007 deg
RA of node:       345.4155 deg
Eccentricity:    0.0010120
Arg of perigee:   346.1122 deg
Mean anomaly:      13.9774 deg
Mean motion:   14.11898685 rev/day
Decay rate:    5.1299E-006 rev/day^2
Epoch rev:           12238
Checksum:              314

Satellite: SAUDISAT 1A
Catalog number: 26545
Epoch time:      103035.61636377
Element set:     408 
Inclination:       64.5584 deg
RA of node:        74.8057 deg
Eccentricity:    0.0053044
Arg of perigee:   241.1073 deg
Mean anomaly:     118.4724 deg
Mean motion:   14.78942739 rev/day
Decay rate:    1.3849E-005 rev/day^2
Epoch rev:           12716
Checksum:              416

Satellite: UNISAT
Catalog number: 26547
Epoch time:      103035.60987836
Element set:     427 
Inclination:       64.5574 deg
RA of node:        77.1138 deg
Eccentricity:    0.0060193
Arg of perigee:   243.4530 deg
Mean anomaly:     116.0408 deg
Mean motion:   14.79682882 rev/day
Decay rate:    2.1489E-005 rev/day^2
Epoch rev:           12712
Checksum:              319

Satellite: TIUNGSAT 1
Catalog number: 26548
Epoch time:      103036.60561965
Element set:     411 
Inclination:       64.5570 deg
RA of node:        64.7977 deg
Eccentricity:    0.0046210
Arg of perigee:   240.1194 deg
Mean anomaly:     119.5303 deg
Mean motion:   14.81223257 rev/day
Decay rate:    1.6719E-005 rev/day^2
Epoch rev:           12744
Checksum:              296

Satellite: SAUDISAT 1B
Catalog number: 26549
Epoch time:      103036.52210659
Element set:     684 
Inclination:       64.5543 deg
RA of node:        76.0692 deg
Eccentricity:    0.0057365
Arg of perigee:   241.0895 deg
Mean anomaly:     118.4456 deg
Mean motion:   14.77883143 rev/day
Decay rate:    1.1219E-005 rev/day^2
Epoch rev:           12721
Checksum:              314

Satellite: AMSAT OSCAR 40
Catalog number: 26609
Epoch time:      103035.10689355
Element set:     310 
Inclination:        8.0513 deg
RA of node:        66.8265 deg
Eccentricity:    0.7939440
Arg of perigee:   140.0872 deg
Mean anomaly:     318.9916 deg
Mean motion:    1.25596472 rev/day
Decay rate:   -1.6899E-006 rev/day^2
Epoch rev:            1040
Checksum:              314

Satellite: GOES 12
Catalog number: 26871
Epoch time:      103036.18022041
Element set:     806 
Inclination:        0.3606 deg
RA of node:       276.6969 deg
Eccentricity:    0.0003236
Arg of perigee:     0.8449 deg
Mean anomaly:     183.3677 deg
Mean motion:    1.00363181 rev/day
Decay rate:   -1.4299E-006 rev/day^2
Epoch rev:             570
Checksum:              281

Satellite: PCSAT
Catalog number: 26931
Epoch time:      103036.85803713
Element set:     394 
Inclination:       67.0482 deg
RA of node:       288.3380 deg
Eccentricity:    0.0005054
Arg of perigee:   262.6077 deg
Mean anomaly:      97.4448 deg
Mean motion:   14.29107815 rev/day
Decay rate:    1.5399E-006 rev/day^2
Epoch rev:            7053
Checksum:              319

Satellite: SAPPHIRE
Catalog number: 26932
Epoch time:      103036.90765340
Element set:     389 
Inclination:       67.0560 deg
RA of node:       287.9182 deg
Eccentricity:    0.0005400
Arg of perigee:   239.4562 deg
Mean anomaly:     120.6005 deg
Mean motion:   14.29289224 rev/day
Decay rate:    1.0500E-006 rev/day^2
Epoch rev:            7056
Checksum:              285

Satellite: ENVISAT
Catalog number: 27386
Epoch time:      103037.31952471
Element set:     914 
Inclination:       98.5460 deg
RA of node:       106.0454 deg
Eccentricity:    0.0000959
Arg of perigee:    93.0187 deg
Mean anomaly:     267.1107 deg
Mean motion:   14.32253523 rev/day
Decay rate:    2.1799E-006 rev/day^2
Epoch rev:            4899
Checksum:              316

Satellite: IDEFIX/ARIANE 
Catalog number: 27422
Epoch time:      103037.41032499
Element set:     226 
Inclination:       98.6964 deg
RA of node:       116.6670 deg
Eccentricity:    0.0012611
Arg of perigee:   181.7736 deg
Mean anomaly:     178.3402 deg
Mean motion:   14.27962560 rev/day
Decay rate:    2.2900E-006 rev/day^2
Epoch rev:            3972
Checksum:              306

